Temp
11 11 11 11 11 11 11 11 11 10 10 10 11 11 11 11 11 12 12 12 12 12 13 13 13 13 13 13 13 13 13 13 13 13 13 14 14 14 14 14 14 14
11 11 11 11 11 10 10 10 10 10 9 9 9 10 10 10 10 11 11 11 11 11 11 12 12 12 12 12 13 12 12 12 13 13 13 13 13 13 14 14 14 14
11 10 10 10 10 10 10 10 9 9 9 9 9 9 9 9 9 10 10 10 10 9 10 10 11 11 11 12 12 12 11 11 12 12 12 13 12 13 13 13 13 14
10 10 10 10 9 9 9 9 8 8 8 8 8 8 8 8 8 9 9 9 9 8 8 9 10 10 10 11 11 11 11 11 11 11 12 12 12 12 12 13 13 13
10 9 9 9 9 9 8 8 8 7 7 7 7 7 7 7 7 7 7 7 7 7 7 8 9 9 10 10 10 10 10 10 10 10 10 11 11 11 12 12 12 12
9 9 9 8 8 8 8 8 7 7 7 7 7 6 6 6 6 6 6 6 6 6 6 7 8 8 8 9 9 8 8 8 8 8 7 8 9 9 10 10 10 11
9 8 8 8 8 8 8 7 7 7 7 7 7 6 6 6 6 5 5 5 5 5 5 5 5 6 6 6 6 6 6 6 6 6 6 7 7 8 8 8 8 9
8 8 8 8 8 8 7 7 7 7 6 6 6 6 5 5 5 5 5 5 5 5 4 4 3 3 4 4 4 4 4 4 4 5 6 6 7 7 8 8 8 8
8 8 8 8 8 7 7 7 7 6 6 5 5 5 4 4 4 4 4 4 4 4 4 3 3 3 3 3 3 3 3 4 4 4 5 6 6 7 7 7 7 7
8 8 7 7 7 7 7 6 6 6 6 5 5 4 4 4 4 4 4 4 4 4 3 3 3 2 3 3 4 3 3 3 3 4 5 5 6 6 6 6 6 6
7 7 7 7 7 6 6 6 6 6 5 5 5 5 4 4 4 4 4 3 3 3 3 3 2 2 3 4 5 4 4 4 3 3 4 4 5 5 6 6 6 6
7 6 6 6 6 6 5 5 5 5 5 5 5 5 5 4 4 4 3 3 3 3 3 2 2 2 3 4 5 5 5 5 4 4 4 4 4 5 5 5 6 6
7 6 6 6 6 5 5 5 5 5 4 4 4 5 4 4 4 4 4 3 3 3 2 2 2 3 3 4 4 5 5 5 5 4 3 4 4 4 5 5 5 5
7 6 6 6 6 6 5 5 5 4 4 4 4 4 4 4 4 4 4 3 3 3 2 2 3 3 3 3 3 4 4 5 5 3 3 3 4 4 5 5 5 5
6 6 6 6 6 6 5 5 5 4 4 4 4 4 4 4 4 4 4 3 3 3 3 2 2 2 3 3 3 3 3 4 4 3 3 3 3 4 4 4 4 4
6 6 6 6 6 6 5 5 5 5 5 5 5 4 4 4 4 4 4 3 3 3 2 2 2 2 3 3 3 3 4 4 3 2 2 3 3 3 4 4 4 4
6 6 6 6 6 6 5 5 5 5 5 5 5 5 5 5 4 4 4 3 3 3 2 2 2 2 3 4 4 4 4 4 3 2 2 2 2 3 3 3 3 3
6 6 6 6 6 6 6 6 6 5 5 5 5 5 4 4 4 4 4 4 3 3 2 2 2 2 3 4 4 4 4 5 4 3 2 2 2 2 2 3 3 3
6 6 6 6 6 6 6 6 6 5 5 5 5 4 4 4 4 4 4 3 3 3 2 2 2 2 3 3 4 4 4 4 4 3 2 2 2 2 2 2 2 2
6 6 6 6 6 6 6 6 5 5 5 5 4 4 4 4 3 3 3 3 3 2 2 2 2 2 3 3 3 4 4 4 4 3 2 2 2 2 2 2 2 2
6 6 6 6 6 6 6 6 5 5 5 5 4 4 4 3 3 3 3 2 2 2 2 2 2 2 3 3 3 4 4 4 3 3 3 3 3 2 1 2 2 2
6 6 6 6 6 6 6 5 5 5 5 4 4 4 4 4 3 3 2 2 2 2 2 2 2 2 2 2 2 3 3 3 3 2 2 2 2 2 1 1 1 1
6 6 6 6 6 6 6 5 5 5 5 4 4 4 4 4 3 3 2 2 2 2 2 1 1 1 2 2 2 2 2 2 2 1 1 1 1 1 1 1 1 1
6 6 6 6 6 6 5 5 5 5 5 4 4 4 4 4 3 3 3 2 2 2 1 1 1 1 2 2 2 2 2 1 1 0 0 0 0 0 0 1 1 1
6 6 6 6 6 5 5 5 5 5 5 4 4 4 4 4 4 3 3 2 2 2 2 1 1 1 1 2 2 2 2 1 1 -0 -0 -0 0 0 0 0 1 1
6 6 6 6 6 5 5 5 5 5 5 5 4 4 4 4 4 3 3 2 2 2 2 1 1 1 1 1 1 1 1 1 1 -0 -1 -0 -0 -0 0 0 0 1
Height
830 830 830 829 830 830 829 829 829 829 829 829 828 828 827 827 827 826 825 824 822 821 821 820 820 819 818 818 817 816 815 814 813 812 811 810 810 808 807 806 805 804
831 831 831 831 830 831 831 831 831 831 830 830 829 829 828 827 827 826 825 824 822 821 820 820 819 818 817 816 815 814 813 813 812 811 810 809 808 807 806 805 803 803
833 833 832 832 832 832 832 832 832 831 831 830 830 829 828 827 826 826 824 823 822 820 820 819 818 817 816 815 814 813 812 811 810 809 808 807 806 805 804 803 802 801
835 834 834 834 834 833 833 833 832 832 831 830 830 829 828 827 826 825 824 823 822 821 819 819 818 816 815 814 813 812 811 811 809 808 807 805 804 803 802 801 800 799
836 836 835 835 835 835 834 833 833 832 832 831 830 829 828 827 825 824 824 823 822 821 820 819 817 816 815 814 812 812 810 809 808 806 805 804 803 802 800 799 798 796
838 837 836 836 836 836 835 834 834 834 833 832 831 829 828 827 826 825 824 823 823 822 821 819 817 816 814 813 812 811 810 809 807 806 804 803 801 800 799 797 796 794
839 838 838 838 837 837 836 836 836 835 834 833 831 829 828 827 827 826 825 825 824 823 822 820 818 816 815 813 812 811 810 809 807 806 805 803 801 800 798 796 794 793
840 839 839 839 838 837 837 837 837 836 836 834 832 830 829 828 828 827 826 826 825 824 823 821 819 818 816 814 813 811 810 809 808 806 805 803 801 799 798 796 794 792
842 841 841 840 839 839 839 838 838 838 837 835 833 832 830 829 829 828 828 827 827 826 825 823 821 819 817 815 814 812 810 809 808 806 805 803 801 799 797 795 794 792
843 844 843 842 842 841 841 840 840 839 838 836 835 833 832 831 831 830 830 829 828 827 827 825 823 821 819 817 815 813 811 809 807 806 805 803 801 799 797 795 793 791
846 846 845 845 844 844 843 843 842 841 840 838 837 835 834 833 832 832 831 830 830 829 828 827 825 823 820 818 816 814 811 809 807 805 804 803 801 799 797 795 793 791
848 848 847 847 847 847 846 845 844 843 842 840 839 838 836 835 834 833 833 832 831 830 829 828 826 824 821 819 817 814 812 810 807 805 803 802 801 799 797 795 793 791
850 849 849 849 849 849 848 847 846 845 844 843 841 840 838 837 836 835 834 833 832 831 830 829 827 825 822 820 817 815 813 810 807 805 803 802 800 799 797 795 792 790
851 851 850 851 851 851 850 849 848 847 846 845 843 842 840 839 838 837 836 835 833 832 831 829 827 825 823 820 818 816 813 811 808 805 803 802 800 798 797 795 792 790
852 852 852 852 852 852 851 850 849 849 848 846 845 843 842 841 840 839 837 836 834 833 832 830 828 827 825 822 820 817 814 811 809 806 804 802 800 798 796 794 791 789
853 853 853 853 853 853 852 852 851 850 849 848 846 845 844 843 841 840 838 837 835 834 833 831 830 828 827 824 821 818 815 812 809 807 805 803 800 797 795 792 790 788
854 854 854 855 855 855 854 854 853 852 851 849 848 847 846 844 843 841 839 838 837 835 834 832 831 830 827 825 822 819 815 812 809 807 805 803 800 798 794 792 789 786
855 856 856 856 856 857 856 856 855 853 852 851 849 848 847 845 844 842 841 839 838 836 835 833 832 830 828 825 822 819 816 813 810 807 805 803 800 798 795 792 789 785
858 858 858 858 859 859 858 858 857 855 854 852 851 850 848 846 845 844 842 841 839 838 837 835 833 831 828 825 822 819 816 813 810 807 805 803 800 797 795 792 789 785
860 860 860 860 861 861 860 860 858 857 856 854 853 851 850 848 847 846 844 843 841 840 838 836 834 832 829 826 823 820 816 813 811 808 805 802 800 797 794 791 789 785
862 862 862 863 863 863 862 861 860 859 857 856 855 853 852 851 849 848 846 845 843 841 839 837 835 832 830 827 823 820 817 814 811 807 804 802 799 796 794 791 789 785
864 864 864 865 865 864 864 863 861 861 859 859 857 856 854 853 851 849 848 846 844 842 840 838 836 834 831 828 825 821 817 814 810 807 804 801 798 795 793 791 789 786
866 866 866 866 867 866 865 865 864 863 862 860 859 857 855 854 852 851 849 847 846 843 841 840 837 835 833 829 826 822 818 814 811 807 804 802 798 796 794 791 789 786
867 867 868 868 868 868 867 867 866 864 863 862 861 859 857 856 854 853 851 849 847 845 843 841 838 835 833 830 826 823 819 815 812 808 805 802 799 796 794 792 788 785
869 869 870 870 870 870 869 868 867 866 865 864 862 861 859 858 856 854 852 850 848 846 844 841 838 836 833 830 827 824 821 817 814 810 807 803 800 797 794 791 788 784
870 871 871 871 871 871 870 869 868 867 866 865 864 862 861 859 857 855 853 852 850 848 845 842 840 837 835 832 829 826 823 819 815 812 809 805 802 799 795 792 788 784
Wind_Speed
15 15 15 16 16 17 16 16 15 15 15 14 14 14 13 13 12 11 11 11 11 11 11 12 12 12 13 13 13 12 12 11 11 12 13 13 13 14 15 15 17 18
16 16 16 17 17 17 17 16 15 15 15 15 14 13 13 13 13 12 11 11 11 11 12 12 14 15 15 15 15 16 16 15 14 14 14 13 13 13 13 14 15 17
17 17 17 17 17 17 16 15 15 16 16 15 14 14 14 13 13 12 12 12 11 12 13 14 16 17 18 19 20 21 20 19 18 18 17 16 16 15 14 14 14 15
17 17 17 17 17 17 16 16 17 19 19 18 17 15 14 14 14 13 13 14 13 13 15 17 18 20 20 21 21 22 22 22 21 21 21 20 19 18 17 16 15 15
16 16 16 16 16 16 17 18 19 20 21 21 18 17 16 15 16 15 14 15 15 15 18 19 19 19 19 20 20 20 21 21 21 21 22 22 21 20 20 19 19 17
15 15 15 15 16 16 17 19 18 18 20 20 18 17 17 17 17 16 16 16 16 17 18 20 20 20 21 22 22 23 23 23 23 23 23 23 22 21 21 21 21 21
16 16 16 15 16 16 17 17 17 17 18 20 19 17 17 17 17 17 17 17 18 18 19 22 24 24 26 27 26 26 26 25 25 25 24 24 24 24 23 23 23 22
18 17 16 15 15 16 16 16 16 16 17 20 20 19 17 17 17 17 17 17 18 18 19 23 25 26 28 28 27 28 28 26 26 25 25 24 24 25 24 24 24 23
19 18 17 16 16 16 16 16 15 16 17 20 21 21 20 18 17 17 17 17 18 18 19 21 23 26 30 30 27 27 28 27 26 24 24 24 24 24 24 24 24 23
19 18 19 19 19 18 17 17 16 16 19 22 23 24 23 20 17 17 17 18 18 19 20 21 23 26 30 31 29 28 27 27 26 24 23 22 23 24 24 24 24 23
18 18 20 21 21 21 21 20 20 20 22 24 25 26 26 24 20 18 18 18 19 19 19 21 25 28 31 32 32 30 29 27 26 25 23 22 22 23 23 23 24 24
16 17 19 20 21 22 23 23 24 24 24 25 25 26 26 26 25 22 20 20 20 20 20 23 27 30 32 33 33 32 31 29 27 26 24 22 22 23 23 23 23 23
14 15 16 18 19 19 20 22 24 25 25 25 25 26 26 26 26 25 24 24 24 24 24 26 29 31 33 34 34 33 32 30 28 26 24 23 22 22 22 22 23 22
13 13 14 15 16 16 17 19 21 23 24 25 25 26 27 27 26 26 26 26 26 26 26 28 30 32 34 34 34 33 32 31 29 25 23 23 22 21 21 21 22 22
12 13 13 13 14 15 16 17 19 20 22 23 25 26 26 26 26 26 26 27 27 27 27 29 31 33 34 34 34 33 31 30 28 25 22 22 21 21 23 23 23 22
13 14 14 14 14 15 16 18 18 20 21 23 24 25 25 26 26 27 27 27 28 28 28 29 31 33 33 33 33 32 30 29 27 24 22 21 21 22 25 25 24 24
14 14 14 14 15 16 17 18 19 21 22 23 24 25 25 26 26 27 28 28 28 28 28 28 31 33 34 34 33 32 31 29 27 25 22 20 20 22 23 24 25 26
15 15 15 16 17 18 18 19 20 22 23 24 25 25 25 26 27 28 28 28 28 29 28 28 31 33 34 34 34 33 32 30 28 26 23 22 22 22 21 22 24 26
17 17 18 18 19 19 19 21 22 23 24 25 26 26 27 27 28 28 28 28 29 30 29 29 30 33 34 34 35 34 33 32 30 28 26 25 25 23 21 21 24 26
19 20 20 20 20 21 22 23 24 24 25 25 26 27 27 28 28 28 28 28 28 29 30 29 31 33 34 34 35 35 34 34 32 30 29 28 27 25 21 20 23 25
20 21 21 21 21 22 23 24 24 24 24 24 25 26 26 26 27 27 28 28 28 29 30 31 31 33 34 34 35 36 35 35 34 33 32 32 30 28 23 21 23 24
20 21 21 21 21 22 23 23 23 23 22 22 24 25 25 26 26 27 27 27 28 29 30 31 31 32 33 34 34 35 36 36 35 33 32 31 31 29 24 22 24 25
19 20 21 21 21 22 22 21 21 21 21 21 23 25 26 26 26 26 27 27 28 29 29 30 31 32 33 34 35 36 36 35 33 31 30 28 28 27 24 25 26 26
18 19 19 19 19 19 19 19 20 20 20 20 22 24 25 25 25 25 26 27 28 28 28 29 31 32 33 34 35 36 36 34 30 28 28 27 26 25 25 27 31 31
17 17 17 17 17 17 17 18 19 19 20 20 21 22 24 25 25 26 26 26 27 28 30 30 31 33 33 34 35 35 36 35 30 27 28 27 25 25 27 30 34 36
15 15 15 15 14 14 15 16 17 18 19 20 20 21 22 24 26 26 26 26 26 28 30 31 31 32 33 33 34 34 35 35 31 27 26 26 25 25 27 31 36 38
Wind_Direction
62 62 62 60 55 50 44 40 37 34 32 28 23 19 15 12 9 5 8 15 14 5 359 356 355 357 356 351 350 352 352 346 335 327 323 321 320 315 310 309 307 298
62 61 59 54 49 43 38 36 35 33 32 30 24 19 12 8 7 4 4 6 6 1 358 358 357 358 356 351 348 350 350 347 341 335 330 329 326 319 312 312 309 304
59 55 51 47 41 37 33 32 34 35 33 29 24 19 15 11 7 7 9 10 9 6 2 359 355 351 350 345 342 341 343 343 340 336 332 331 331 327 323 320 313 310
55 50 47 43 39 35 33 33 37 38 35 32 29 24 19 15 10 9 12 13 15 11 4 1 356 351 347 342 338 335 334 336 337 334 331 329 329 328 326 324 319 314
51 48 45 42 41 39 38 38 37 35 33 33 33 30 25 20 15 14 16 16 17 13 6 5 1 356 355 354 353 350 347 347 345 342 339 334 331 330 328 325 322 316
51 49 47 46 47 46 44 43 38 33 29 27 33 38 33 27 23 23 23 22 24 21 14 14 14 13 13 12 11 8 6 3 1 359 355 348 344 342 338 332 326 319
58 56 54 53 54 51 49 46 42 37 27 20 29 40 40 36 30 28 28 28 29 28 20 19 21 19 15 13 11 9 7 5 5 5 2 358 354 351 349 345 337 330
60 59 56 53 53 50 48 47 47 43 28 21 31 41 45 44 37 32 32 30 29 27 21 18 18 17 14 12 9 7 5 3 3 2 360 357 354 352 352 350 346 340
58 56 53 50 48 46 45 45 44 42 33 31 39 43 42 42 38 35 33 30 28 24 20 17 15 14 14 12 8 5 2 1 1 1 357 353 351 352 351 349 345 340
59 56 54 53 52 50 49 47 45 45 43 43 45 45 43 42 38 35 33 30 27 23 20 16 13 12 12 11 10 6 1 358 358 359 357 352 349 350 349 345 341 336
63 60 57 57 57 56 55 54 52 51 49 47 47 48 48 48 45 38 32 29 26 22 18 14 13 13 11 11 11 8 3 359 356 356 354 350 346 345 345 342 338 334
70 66 63 60 59 57 54 52 52 51 50 49 48 49 48 48 49 45 38 34 31 27 22 17 16 14 12 11 10 8 6 2 358 357 353 348 345 345 346 343 339 335
76 73 70 65 60 55 51 49 48 48 49 49 48 48 47 46 47 45 42 39 36 32 27 21 19 16 13 12 10 7 6 3 1 359 354 348 343 342 344 342 339 336
77 77 75 69 62 56 52 49 48 48 48 48 48 47 46 45 44 43 42 40 36 33 29 24 21 18 15 12 9 6 5 5 4 0 353 347 343 339 340 339 336 334
78 77 75 69 62 55 50 49 50 50 49 48 47 46 45 45 44 43 41 39 36 34 30 26 22 19 16 13 10 5 3 4 6 2 354 348 343 343 345 343 338 333
78 76 73 67 61 53 50 51 51 51 50 48 48 47 46 44 43 42 40 37 34 32 28 26 22 18 16 16 13 8 4 4 5 2 358 352 346 345 348 346 341 337
79 76 72 66 60 55 53 54 52 49 49 48 47 47 45 43 41 39 38 35 33 30 26 23 20 17 16 16 15 12 8 6 5 2 359 354 347 344 344 343 341 340
82 79 75 69 64 61 58 56 53 51 50 48 47 46 44 42 39 37 36 34 33 30 25 22 19 16 16 16 15 14 12 10 8 5 1 355 351 346 341 340 340 339
85 82 78 74 70 67 64 60 57 55 52 49 47 45 43 41 39 37 35 34 32 30 25 21 18 16 15 15 13 13 14 13 11 7 3 358 355 352 344 339 340 340
89 86 82 79 76 72 67 64 60 56 54 50 47 44 41 40 38 36 35 33 31 29 25 21 19 16 15 14 13 12 13 14 12 9 6 2 359 358 351 343 342 341
91 89 86 82 78 74 68 63 60 57 55 51 48 45 42 40 38 36 34 32 30 28 25 22 20 18 16 14 12 11 12 12 11 10 7 5 3 3 357 347 345 344
93 91 87 83 78 73 67 63 60 58 56 53 50 47 43 41 38 35 33 32 29 27 23 20 20 19 17 15 12 11 11 11 10 8 5 3 3 2 357 350 347 346
95 91 88 83 78 72 67 64 61 59 57 54 50 46 42 39 37 35 33 31 29 27 21 17 19 18 16 16 14 12 11 10 8 5 3 1 1 1 356 351 351 349
96 92 87 83 79 75 70 66 62 59 57 53 50 46 42 38 35 34 34 32 30 27 22 18 18 17 17 17 17 14 12 10 7 3 2 1 0 359 356 354 356 357
96 92 89 85 82 78 72 66 61 59 56 54 51 47 42 38 35 34 34 33 32 29 26 22 19 17 17 18 17 16 14 12 9 5 2 2 0 357 355 358 0 0
99 96 92 88 83 77 70 63 59 56 54 52 50 46 41 37 35 34 33 33 33 31 29 26 21 17 17 18 18 18 16 14 12 8 3 1 360 357 356 358 0 0